DELTA 1 DEB, 19033

Orbit data source: Space-Track

DELTA 1 DEB, 19033 is space debris in SSO originally from a launch on Tue, 06 Nov 1973 UTC launched from the Air Force Western Test Range (AFWTR). Debris objects in space refer to the collection of defunct objects orbiting the Earth. Examples of debris include non-operational satellites, rocket bodies, and fragments generated from explosions, collisions, or faulty payload assembly.

Loading next visibility...
Identifier
19033, 1973-086HC
Orbit
SSO
Country
Flag of USUS
Related business
Manufacturer
Unknown
Mission
Spacecraft
Bus & Motor
Unknown
Mass
Unknown
Launch date (UTC)
1973-11-06 (52 years ago)
Launch vehicle
Unknown
Launch site
Air Force Western Test Range (AFWTR)
Object type
Payload
Rocket body
Debris
Shape & HBR
Unknown shape, 0.1 m
Radar Cross Section
Small (<0.1 m²)

Expand to show TLE details & history
Last TLE update: 4 days ago

TLE from 4 days ago
0 DELTA 1 DEB
1 19033U 73086HC  25289.22723443  .00000417  00000-0  29059-2 0  9992
2 19033 101.9463 291.3159 0037029 237.4847 185.0342 12.53448211853211
Epoch: 2025-10-16T05:27Z
TLE epoch observation values (Epoch: 2025-10-16T05:27:13.054Z)
Latitude
60.27836°
Longitude
162.88018°
Altitude
1,489.055 km
Speed
7.112 km/s
True Right ascension
17h 58m 41s
True Declination
60° 08' 38"
Sunlit
Object was in daylight at epoch
Visualization orbit readout
Latitude
Unknown
Longitude
Unknown
Altitude
Unknown
Speed
Unknown
Apparent Right ascension
Unknown
Apparent Declination
Unknown
Sunlit
N/A
Visualization observer readout
Local Sidereal Time
21:41:45
Azimuth
Unknown
Elevation
Unknown
Doppler factor
Unknown
Orbital elements
Apogee altitude
1,476.637 km
Perigee altitude
1,418.681 km
Semi-major axis
7,825.796 km
Eccentricity
0.0037
Inclination
101.9463°
RAAN
291.3159°
Arg. of periapsis
237.4847°
True anomaly
184.99714°
Mean anomaly
185.0342°
Eccentric anomaly
185.01565°
Mean motion
3.13509 °/min
Orbital period
114.83 mins
BSTAR
0.0029059
Loading maneuver chart data...
Computing Atmospheric mass density...
Loading historical data...
Loading historical data...
Loading historical data...
Loading historical data...
Loading historical data...
Loading historical data...
Loading historical data...

Documentation

Showing up to 5 results
|